Location: Newark
(46.7000°N, 60.6000°W)
Time: 13:25:02
(UTC+00:00)

A-11 Canister half - Pass Details

Date: 30 October 2020
Orbit: 1525 x 1684 km, 47.3° (Epoch: 01 December)

Event Time Altitude Azimuth Distance (km) Brightness Sun altitude
Rises 21:35:19 0° 279° (W) 4,740 13.1 -8.4°
Reaches altitude 10° 21:38:24 10° 279° (W) 3,739 12.3 -9.0°
Maximum altitude 21:47:51 89° 190° (S) 1,535 9.0 -10.6°
Enters shadow 21:56:47 12° 103° (ESE) 3,566 10.3 -12.1°
Drops below altitude 10° 21:57:11 10° 104° (ESE) 3,691 - -12.1°
Sets 22:00:12 0° 104° (ESE) 4,677 - -12.7°
